Location: Bretagne
(43.8474°N, 0.4650°W)
Time: 17:29:43
(UTC+00:00)

BREEZE-M DEB (TANK) - Visible Passes

Search period start: 11 April 2026 00:00
Search period end: 21 April 2026 00:00
Orbit: 311 x 12601 km, 49.6° (Epoch: 11 April)

Date Brightness Start Highest point End Pass type
(mag) Time Alt. Az. Time Alt. Az. Time Alt. Az.
11 Apr 8.4 02:03:03 10° SE 02:05:33 10° SE 02:07:45 10° SE visible
12 Apr 8.2 02:02:53 10° SSE 02:13:29 13° SE 02:20:18 10° ESE visible
13 Apr 8.0 02:06:03 10° SSE 02:21:23 15° SE 02:29:40 10° ESE visible
14 Apr 8.0 02:10:14 10° SSE 02:29:13 18° SE 02:38:14 10° E visible
15 Apr 7.9 02:15:03 10° S 02:37:00 21° SE 02:46:21 10° E visible
16 Apr 7.8 02:20:18 10° S 02:44:43 23° SE 02:54:11 10° E visible
17 Apr 7.6 02:25:55 10° S 02:52:23 26° SE 03:01:48 10° E visible
18 Apr 7.4 02:31:50 10° S 02:59:58 29° SE 03:09:16 10° E visible
19 Apr 7.3 02:38:02 10° S 03:07:30 32° SE 03:16:35 10° E visible
20 Apr 7.1 02:44:28 10° SSW 03:14:58 36° SE 03:23:48 10° E visible
